Reflectivity
-20 -20 -20 -1 10 7 -19 -10 -15 -20 -20 -20 -20 -20 -20 -20 -20 -20 -20 -20 -20 -20 -20 -20 -20 -20 -20 -20 -20 -20 30 16 0 -19 -20 -20 -20 -20 -20 -20 -20 -20 -20 -20 -20
9 3 -7 -4 -11 -1 11 -5 -12 -20 -20 -20 -20 -20 -20 -20 -20 -20 -20 -20 -20 -20 -20 -20 -20 -20 -17 -20 -20 22 15 11 -20 -17 -20 -20 -20 -20 -20 -20 -20 -20 -20 -20 -20
-16 -19 -13 -4 11 12 8 11 10 -20 -20 -20 -20 -20 -20 -20 -20 -20 -20 -20 -20 -20 -20 -20 -20 -20 -17 -20 -20 -16 26 10 -20 -20 -20 -20 -20 -20 -20 1 -20 -20 -20 -20 -20
-20 8 11 -17 -20 -20 6 1 10 1 -16 -20 -20 -20 -20 -20 -20 -20 -20 -20 -20 -20 -20 -20 -20 -20 -20 -20 -20 -20 -17 -20 -20 -20 -20 -20 -20 -20 -20 -20 -20 -20 -20 -20 -20
12 -20 1 11 12 8 0 9 10 -20 -11 -20 -20 -20 -20 -20 -20 -20 -20 -20 -20 -20 -20 -20 -20 -20 -10 -3 -20 -20 -4 -20 -20 -20 -20 -20 -20 -20 -20 -20 -20 -20 -20 -20 -20
12 12 -7 -20 -11 1 -5 9 4 4 -20 -20 -20 -20 -20 -20 -20 -20 -20 -20 -20 -20 -20 -20 -20 -20 -20 -5 13 -19 -20 -20 4 -20 1 9 -18 -20 -20 -20 -20 -20 -20 -20 -20
12 10 6 9 6 4 0 -19 -20 -20 -20 -20 -20 -20 -20 -20 -20 -20 -20 -20 -20 -20 -20 -20 -20 -20 -20 12 25 -13 -17 6 -7 -20 -20 -20 -17 20 -20 -20 -20 -20 -20 -20 -20
1 -2 6 5 9 -18 -20 -20 -19 -17 -20 -20 -20 -20 -20 -20 -20 -20 -20 -20 -20 -20 -20 -20 -20 -20 -20 11 9 -10 -11 8 26 25 -9 -9 20 -20 -20 -20 -20 -20 -20 -20 -20
-5 -8 -20 -20 6 6 -20 -20 -18 -16 -20 -20 -20 -20 -20 -20 -20 -20 -20 -20 -20 -20 -20 -20 -20 -20 -20 14 -12 29 29 30 27 -5 6 22 22 26 26 -2 -20 -20 -20 -20 -20
-20 -20 -20 -20 -4 -14 -20 -20 -20 -20 -20 -20 -20 -20 -20 -20 -20 -20 -20 -20 -20 -20 -20 -20 -20 -20 -20 -20 24 25 29 -13 23 11 13 33 32 24 25 5 -20 -20 -20 -20 -20
-20 -20 -4 -20 -20 -20 -20 -20 -20 -20 -20 -20 -20 -20 -20 -20 -20 -20 -20 -20 -20 -20 -20 -20 -20 -20 -20 -20 1 10 18 9 -8 -4 42 30 34 34 23 31 -20 -20 -20 -20 -20
-20 -2 -11 -20 -20 -20 -20 -20 -20 -20 -20 -20 -20 -20 -20 -20 -20 -20 -20 -20 -20 -20 -20 -20 -20 -20 -20 -20 -20 16 28 1 3 18 -1 33 32 28 32 28 -11 -20 -20 -20 -20
-20 2 -15 -20 -20 -20 -20 -20 -20 -20 -20 -20 -20 -20 -20 -20 -20 -20 -20 -20 -20 -20 -20 -20 -20 -20 -20 -20 -20 -20 -10 -15 -6 -13 8 31 26 23 28 30 17 -20 -20 -20 -20
-20 0 -20 -20 8 -20 -20 -20 -20 -20 -20 -20 -20 -20 -20 -20 -20 -20 -20 -20 -20 -20 -20 -20 -20 -20 -20 -19 -20 -20 -20 -20 -20 -20 26 15 4 8 21 39 27 -20 -20 -20 -20
-20 6 8 -2 -20 -20 -20 -20 -20 -20 -20 -20 -20 -20 -20 -20 -20 -20 -20 -20 -20 -20 -20 -20 -20 -20 -20 -20 -1 8 -20 -20 -20 8 -3 23 12 8 31 26 23 -20 -20 -20 -20
-18 8 -2 -20 -20 -20 -20 -20 -20 -20 -20 -20 -20 -20 -20 -20 -20 -20 -20 -20 -20 -20 -20 -20 -20 -20 -20 -20 -20 -20 -20 -20 -20 -20 -11 7 -1 5 6 32 -3 -18 -20 -20 -20
4 9 -4 -20 -20 -20 -20 -20 -20 -20 -20 -20 -20 -20 -20 -20 -20 -20 -20 -20 -20 -20 -20 -20 -20 -20 -20 -20 -20 -20 -20 -20 -20 -20 -20 -16 -20 11 30 32 20 21 2 -20 -20
2 -20 -20 -20 -20 -20 -20 -20 -20 -20 -20 -20 -20 -20 -20 -20 -20 -20 -20 -20 -20 -20 -20 -20 -20 -20 -20 -20 -20 -20 -20 -20 -20 -20 -9 -20 -20 6 7 -17 3 -17 6 18 -20
-6 -20 -20 -20 -20 -20 -20 -20 -20 -20 -20 -20 -20 -20 -20 -20 -20 -20 -20 -20 -20 -20 -20 -20 -20 -20 -20 -20 -20 -20 -20 -20 -20 8 -19 -14 -13 4 -12 -20 -20 -20 -20 -20 -20
-20 -20 -20 -20 -20 -20 -20 -20 -20 -20 -20 -20 -20 -20 -20 -20 -20 -20 -20 -20 -20 -20 -20 -20 -20 -20 -20 -20 -20 -20 -20 -20 -20 -20 -20 5 -18 -6 -4 -19 -20 -20 -20 -20 -20
-20 -20 -20 -20 -20 -20 -20 -20 -20 -20 -20 -20 -20 -20 -20 -20 -20 -20 10 -20 -20 -20 -20 -20 -20 -20 -20 -20 -20 -20 -20 -20 -20 -20 -20 -12 -16 -20 -19 -20 -20 -20 -20 -20 -20
-20 -20 -20 -20 -20 -20 -20 -20 -20 -20 -20 -20 -20 -20 -20 -20 -20 1 -20 -1 -20 -20 -20 -20 -20 -20 -20 -20 -20 -20 -20 -20 -20 -20 -20 -15 10 -20 -20 -20 -20 -20 -2 -5 -13
-20 -20 -20 -20 -20 -20 -20 -20 -20 -20 -20 -20 -20 -20 -20 -20 -20 -20 -20 8 -20 -20 -20 -20 -20 -20 -20 -20 -20 -20 -20 -20 -20 -20 -20 -20 -20 -20 -20 -20 -20 -5 -6 -20 -4
-20 -20 -20 -20 -20 -20 -20 -20 -20 -20 -20 -20 -20 -20 -20 -20 -15 -20 -20 -8 -1 -20 -20 -20 -20 -20 -15 -20 -20 -20 -20 -20 -20 -20 -20 -20 -5 -20 -20 -20 -20 -9 -20 -20 -1
-20 -20 -20 -20 -20 -20 -20 -20 -20 -20 -20 -20 -20 -20 -20 -20 -20 -20 -8 -15 4 -16 -13 -20 -20 -20 -14 -13 -20 -20 -20 -20 -20 -20 -20 0 -20 -20 -20 -20 -20 -20 -20 -9 -3
-20 -20 -20 -20 -20 -20 -20 -20 -20 -20 -20 -20 -20 -20 -20 -20 -20 -17 -8 -6 -10 22 6 -20 -14 -20 -20 -20 -20 -20 -20 -20 -20 -20 -20 -20 -20 -20 -20 -20 -20 -20 -20 -20 -20
-20 -20 -20 -20 -20 -20 -20 -20 -20 -20 -20 -20 -20 -20 -20 -20 -20 -20 -3 15 13 1 10 2 -20 11 -16 -20 -20 -20 -20 -20 -20 -20 -20 -20 -20 -20 -20 -20 -20 -20 -20 -20 -8
Wind_Speed
9 8 8 8 8 8 8 7 7 8 9 10 10 11 12 12 14 9 9 1 4 12 11 12 10 10 9 6 1 6 2 3 7 11 10 14 14 11 6 12 6 3 12 23 21
10 10 10 10 9 9 8 8 8 8 8 9 10 11 12 11 10 12 3 3 7 14 16 16 14 13 7 6 6 4 3 4 4 9 16 18 14 12 12 12 11 16 23 23 21
10 10 10 11 10 10 9 9 9 8 8 9 9 12 11 13 8 4 5 12 10 14 14 12 11 12 8 7 6 1 2 0 7 13 18 17 13 11 13 11 15 21 25 23 21
10 9 10 9 10 9 9 9 9 9 9 9 10 10 11 8 1 7 6 15 12 16 12 12 14 11 5 6 3 5 1 3 9 16 17 16 12 11 10 7 14 22 25 23 21
11 10 10 11 11 11 10 9 8 8 8 9 10 10 8 8 4 6 9 14 16 15 17 15 14 10 11 3 5 7 0 7 14 16 13 11 11 13 6 9 17 24 22 21 18
12 12 11 11 10 9 9 9 9 9 8 8 9 10 8 8 4 4 11 17 15 16 15 14 11 9 5 3 5 4 4 14 16 18 12 12 15 10 10 17 21 22 20 18 17
12 11 11 11 10 10 9 8 7 7 10 8 8 7 8 3 4 5 11 12 15 12 13 10 9 12 9 5 1 11 13 13 16 15 13 14 10 10 15 19 20 20 18 16 15
11 10 10 10 10 9 8 8 8 9 7 7 6 7 5 4 3 7 8 9 10 7 8 3 7 6 6 6 6 8 15 14 15 15 6 3 13 10 8 18 19 18 16 15 14
11 10 10 10 10 10 9 11 8 7 6 6 8 6 5 6 7 10 10 12 12 9 6 6 9 7 8 10 8 3 10 12 14 10 9 5 4 15 9 8 19 17 16 15 14
9 9 9 9 9 9 10 6 8 10 8 7 5 7 5 5 8 10 7 10 10 12 11 11 9 10 11 12 8 6 9 17 16 12 12 8 5 9 11 12 19 18 17 16 16
11 10 10 8 8 7 8 6 7 8 8 8 5 5 2 8 11 11 10 11 9 14 11 15 12 16 15 13 1 15 10 10 12 19 14 13 7 10 14 13 18 19 17 17 16
11 11 10 8 7 5 7 6 7 7 7 4 6 7 6 2 10 12 10 10 11 15 13 11 16 16 4 5 9 12 16 9 11 15 9 13 10 6 10 14 18 19 19 18 17
11 11 9 8 6 5 6 4 3 5 7 4 2 3 5 10 8 15 17 7 13 15 16 14 14 6 10 11 9 9 10 12 16 12 8 15 7 5 4 7 13 20 19 17 19
11 11 7 5 5 0 4 3 3 4 6 6 6 6 7 6 7 15 17 8 7 14 16 15 6 12 13 14 11 10 2 4 17 13 5 5 2 4 1 8 14 17 18 17 17
12 11 7 8 8 5 5 2 2 6 1 4 5 3 4 8 14 12 15 7 10 11 11 9 15 17 16 14 9 5 3 5 11 9 14 8 4 5 4 11 18 20 22 21 21
13 10 5 6 5 5 2 1 5 8 6 3 1 1 8 9 7 14 14 10 2 8 15 4 10 13 14 9 12 0 8 6 6 8 7 12 5 7 8 18 13 19 19 20 21
16 11 8 3 3 1 4 5 8 4 2 3 2 2 4 6 9 16 16 14 10 11 14 9 12 9 8 14 13 11 11 6 7 7 2 14 9 7 22 14 18 19 21 20 17
19 5 10 5 4 6 6 8 2 2 3 1 2 2 9 6 7 10 16 15 7 12 12 14 16 15 13 14 11 18 15 8 9 11 7 8 7 6 7 8 6 9 22 20 19
17 5 4 2 5 6 9 2 5 2 4 7 5 6 6 9 5 8 13 13 11 12 7 13 12 18 12 14 9 16 18 15 12 2 10 13 7 5 5 5 7 14 18 22 22
5 4 4 2 6 8 7 5 3 5 7 4 6 2 5 11 10 10 10 5 10 4 9 4 11 12 16 11 16 12 15 17 11 12 12 8 10 6 11 9 4 7 16 18 17
5 6 5 4 5 7 2 6 1 3 6 7 6 4 1 3 10 10 8 6 4 9 9 6 10 12 14 16 16 13 13 14 16 15 10 12 12 5 6 10 10 7 4 2 7
4 6 4 4 6 1 2 3 1 3 1 2 5 6 5 2 5 5 6 4 5 6 13 11 8 10 18 5 9 18 17 18 13 17 10 13 5 4 6 9 11 9 9 8 7
2 3 3 5 4 5 5 4 2 4 5 6 3 4 2 2 1 3 1 6 9 5 3 9 9 7 8 10 7 14 12 12 16 15 18 14 5 6 8 8 6 9 10 8 8
4 6 4 4 2 5 2 1 2 3 2 3 4 4 4 3 3 4 6 5 3 7 6 5 6 11 9 14 14 10 11 15 16 12 11 13 8 9 10 11 9 9 7 6 5
3 2 4 6 5 1 2 1 2 2 1 2 3 3 5 3 3 3 2 1 6 5 4 5 1 6 7 8 7 8 12 14 16 16 10 7 9 7 10 10 11 10 9 9 7
4 3 3 3 5 5 4 2 2 1 4 2 2 3 2 1 6 6 2 2 1 6 15 7 5 0 8 5 7 9 5 3 3 5 5 5 5 4 9 10 11 12 8 8 6
1 2 6 5 6 6 3 1 2 1 3 3 3 1 5 7 6 4 5 6 4 6 8 7 8 5 10 3 4 8 6 5 5 2 4 9 9 6 9 9 10 10 10 8 8
Wind_Direction
336 333 328 326 325 324 321 319 321 322 322 323 329 327 324 325 296 231 246 25 176 165 227 159 179 167 174 218 199 232 263 153 200 169 155 154 164 161 113 147 151 128 148 140 141
336 333 327 323 319 316 313 311 311 310 314 317 322 320 324 319 284 254 130 136 148 173 188 176 170 166 201 220 206 251 223 179 265 180 152 158 156 143 162 136 132 117 115 143 151
335 332 327 325 321 316 310 306 304 304 308 311 316 316 316 302 270 121 142 191 197 193 192 196 168 173 201 224 195 188 277 73 163 141 162 149 145 156 158 169 153 143 145 150 157
328 326 323 319 313 311 307 305 303 303 305 308 308 314 308 263 263 77 321 172 184 196 189 193 185 192 189 222 186 254 216 248 148 141 152 151 143 154 173 100 154 150 150 154 162
330 327 324 323 321 318 314 307 299 298 301 303 309 310 272 224 253 360 137 154 173 190 192 192 196 203 212 195 269 232 338 171 144 131 122 143 154 132 117 133 141 147 153 158 164
335 331 325 324 322 319 317 314 311 303 297 297 300 298 247 244 41 17 167 163 167 188 188 198 207 220 142 182 259 326 197 151 149 126 140 158 133 130 127 133 140 151 156 160 161
337 333 330 328 327 324 318 309 301 293 294 293 289 266 248 307 357 114 170 181 161 186 183 186 239 208 139 144 252 252 143 147 131 147 144 126 151 129 139 149 151 159 159 157 159
337 332 329 326 326 325 318 305 284 282 263 262 258 254 268 112 79 160 164 164 168 176 225 168 189 251 214 123 173 213 155 149 158 145 96 336 157 147 164 161 161 160 160 161 160
335 333 327 320 319 319 312 297 265 244 240 213 227 256 127 136 190 151 164 172 169 149 177 191 216 228 167 191 170 264 182 170 160 173 118 63 112 144 177 220 166 167 163 166 163
331 333 325 321 322 322 311 283 161 178 202 218 260 239 196 107 136 159 157 158 179 154 152 194 216 216 214 188 203 150 195 161 160 142 126 165 174 176 159 220 182 173 170 171 168
326 331 325 319 321 319 275 191 205 176 205 295 342 303 98 96 150 169 155 162 197 193 176 196 211 210 196 207 90 140 264 182 159 147 145 172 150 188 172 211 212 180 178 179 177
325 332 321 313 316 302 264 280 33 353 295 194 263 257 250 303 156 167 185 174 182 196 174 170 226 204 175 207 212 195 215 145 87 144 151 158 155 158 194 210 208 195 181 182 179
321 332 322 310 311 233 268 283 27 318 260 126 198 231 161 200 195 166 195 171 189 203 202 199 203 160 205 198 212 202 216 158 146 114 61 139 150 187 107 260 221 204 192 193 185
320 331 321 306 254 58 227 110 271 267 246 93 150 125 163 225 181 154 192 185 195 202 213 226 144 177 206 210 229 180 163 145 138 171 142 233 204 272 229 216 228 213 212 194 213
321 324 306 245 326 241 65 321 142 218 271 31 86 73 178 229 125 176 188 195 200 190 206 196 174 196 207 207 205 37 198 179 177 148 135 194 210 152 242 256 215 206 202 204 203
319 318 295 192 226 278 253 276 222 229 83 108 113 220 197 204 169 145 184 237 354 200 214 279 212 204 198 169 196 32 191 158 200 166 196 166 173 171 181 243 219 213 207 210 200
321 298 228 283 11 109 263 228 234 24 178 76 29 301 275 159 156 172 185 194 192 194 191 186 194 193 201 189 183 219 201 165 201 202 246 163 209 138 204 202 236 201 207 206 209
324 276 190 274 296 277 234 236 350 57 56 50 296 240 240 193 155 183 184 195 211 253 183 193 181 188 202 211 187 205 209 212 185 222 166 141 226 128 137 155 216 220 195 201 208
313 187 202 155 225 237 256 294 32 18 1 340 197 262 174 195 243 192 193 202 182 222 248 203 221 177 181 216 224 185 220 231 282 278 237 162 156 163 168 182 204 197 202 201 201
299 232 103 47 179 243 257 54 72 355 327 295 329 350 270 192 208 216 174 222 194 222 286 184 218 178 196 221 213 260 212 211 221 237 231 165 194 203 189 187 186 200 187 192 196
236 224 64 195 247 236 313 62 58 82 335 327 344 313 336 241 261 211 145 108 248 182 236 219 255 154 172 205 192 195 231 218 241 233 237 227 197 76 143 166 171 142 99 74 180
286 215 116 228 222 303 129 31 309 22 2 312 294 340 350 343 228 235 194 26 352 251 209 217 261 181 199 123 268 215 214 205 227 215 250 294 85 86 119 140 158 163 149 140 137
265 81 149 255 237 176 124 148 347 348 26 340 337 360 16 47 220 267 44 61 359 274 245 180 235 176 184 179 202 219 218 232 221 244 205 233 207 123 130 137 150 157 149 145 136
257 180 148 208 328 295 196 160 193 87 84 335 334 257 227 187 202 171 118 51 329 18 350 281 255 262 215 197 180 186 211 216 223 222 241 205 179 158 160 157 166 156 143 141 139
225 89 8 174 163 141 263 341 269 289 149 307 169 324 304 171 179 169 217 56 45 354 263 274 207 193 84 113 160 195 192 200 220 247 249 178 200 103 163 168 167 159 159 157 162
292 252 176 107 145 194 148 95 318 120 304 118 87 55 256 76 351 161 240 56 279 177 276 303 108 175 111 116 146 143 155 183 191 234 243 251 140 34 135 141 153 156 159 170 161
63 229 282 146 188 232 83 129 77 182 108 41 60 290 82 49 27 67 99 128 266 266 116 296 142 240 142 126 191 168 72 116 116 126 313 221 67 141 153 166 168 154 167 169 166